Location: Bambrugge
(50.9212°N, 3.9299°E)
Time: 04:51:32
(UTC+00:00)

CSL-04 DEB - Visible Passes

Search period start: 19 January 2026 00:00
Search period end: 29 January 2026 00:00
Orbit: 698 x 855 km, 98.9° (Epoch: 18 January)

Date Brightness Start Highest point End Pass type
(mag) Time Alt. Az. Time Alt. Az. Time Alt. Az.
19 Jan ? 05:32:05 10° NE 05:35:36 20° E 05:39:07 10° SE visible
19 Jan ? 16:52:41 10° SE 16:57:32 54° ENE 17:02:15 10° N visible
19 Jan ? 18:33:03 10° SSW 18:37:01 24° W 18:40:54 10° NW visible
20 Jan ? 05:01:13 10° E 05:01:42 10° E 05:02:10 10° E visible
20 Jan ? 06:37:00 10° NNE 06:41:45 72° ESE 06:46:33 10° S visible
20 Jan ? 17:58:36 10° S 18:03:20 44° W 18:07:57 10° NNW visible
21 Jan ? 06:03:45 10° NNE 06:08:10 37° E 06:12:37 10° SSE visible
21 Jan ? 17:24:50 10° SSE 17:29:47 84° WSW 17:34:37 10° NNW visible
21 Jan ? 19:07:35 10° WSW 19:09:42 13° W 19:11:48 10° WNW visible
22 Jan ? 05:30:57 10° NE 05:34:25 20° E 05:37:55 10° SE visible
22 Jan ? 16:51:38 10° SE 16:56:23 52° ENE 17:01:02 10° N visible
22 Jan ? 18:31:54 10° SSW 18:35:51 24° W 18:39:45 10° NW visible
23 Jan ? 06:35:50 10° NNE 06:40:35 70° ESE 06:45:25 10° S visible
23 Jan ? 17:57:28 10° S 18:02:10 45° W 18:06:47 10° NNW visible
24 Jan ? 06:02:35 10° NNE 06:06:59 36° E 06:11:27 10° SSE visible
24 Jan ? 17:23:44 10° SSE 17:28:38 86° WSW 17:33:25 10° NNW visible
24 Jan ? 19:06:21 10° WSW 19:08:32 13° W 19:10:42 10° WNW visible
25 Jan ? 05:29:49 10° NE 05:33:15 19° E 05:36:44 10° SE visible
25 Jan ? 16:50:33 10° SE 16:55:14 50° ENE 16:59:50 10° N visible
25 Jan ? 18:30:44 10° SSW 18:34:41 24° W 18:38:36 10° NW visible
26 Jan ? 06:34:38 10° NNE 06:39:25 68° ESE 06:44:18 10° S visible
26 Jan ? 17:56:20 10° S 18:01:00 46° W 18:05:36 10° NNW visible
27 Jan ? 06:01:25 10° NNE 06:05:49 35° E 06:10:19 10° SSE visible
27 Jan ? 17:22:37 10° SSE 17:27:28 89° WSW 17:32:14 10° NNW visible
27 Jan ? 19:05:06 10° WSW 19:07:21 13° W 19:09:36 10° WNW visible
28 Jan ? 05:28:40 10° NE 05:32:04 19° E 05:35:32 10° SE visible
28 Jan ? 18:29:33 10° SSW 18:33:30 25° W 18:37:26 10° NW visible
